Buffalo, MN

10:10 AM CST on December 14, 2019 (GMT -0600)
Buffalo

Weather History for KCFE - October, 2019

Change the Weather History Date:

Saturday, October 5, 2019

  Actual Average (WUND) Record (WUND)
Temperature  
Mean Temperature 50 °F -  
Max Temperature 56 °F - - (-1)
Min Temperature 45 °F - - (-1)
Degree Days  
Heating Degree Days 15    
Moisture  
Dew Point 46 °F    
Average Humidity 87    
Maximum Humidity 93    
Minimum Humidity 73    
Precipitation  
Precipitation 0.98 in - - ()
Sea Level Pressure  
Sea Level Pressure 29.85 in    
Wind  
Wind Speed - (North)    
Max Wind Speed -    
Max Gust Speed -    
Visibility 8 miles    
Events Rain , Thunderstorm    
Averages and records for this station are not official NWS values.
T = Trace of Precipitation, MM = Missing Value Source: NWS Daily Summary

Daily Weather History Graph

Daily Weather History Graph

Search for Another Location

Airport or City:

Astronomy

Oct. 05, 2019 Rise Set
Actual Time 7:18 AM CDT 6:48 PM CDT
Civil Twilight 6:48 AM CDT 7:17 PM CDT
Nautical Twilight 6:14 AM CDT 7:51 PM CDT
Astronomical Twilight 5:40 AM CDT 8:26 PM CDT
Moon 2:59 PM CDT (10/5) 11:57 PM CDT (10/5)
Length of Visible Light 12h 29m
Length of Day
11h 30m
Waxing Crescent, 50% of the Moon is Illuminated
Oct 5
Waxing Crescent
Oct 13
Full
Oct 21
Last Quarter
Oct 27
New
Nov 4
First Quarter

Hourly Weather History & Observations

Time (CDT) Temp. Dew Point Humidity Pressure Visibility Wind Dir Wind Speed Gust Speed Precip Events Conditions
12:15 AM 46.4 °F 41.0 °F 81% 30.19 in 10.0 mi North - - N/A   Light Drizzle
12:16 AM 46.4 °F 41.0 °F 81% 30.19 in 10.0 mi North - - N/A   Light Drizzle
12:35 AM 45.7 °F 41.0 °F 84% 30.17 in 7.0 mi North - - 0.02 in Rain Rain
12:55 AM 45.5 °F 41.5 °F 86% 30.17 in 10.0 mi North - - 0.04 in Rain Light Rain
12:56 AM 45.5 °F 41.5 °F 86% 30.17 in 10.0 mi North - - 0.04 in Rain Light Rain
1:15 AM 45.1 °F 41.9 °F 88% 30.15 in 10.0 mi North - - 0.01 in Rain Rain
1:55 AM 45.5 °F 42.1 °F 88% 30.13 in 10.0 mi North - - 0.01 in   Light Drizzle
1:56 AM 45.5 °F 42.1 °F 88% 30.13 in 10.0 mi North - - 0.01 in   Light Drizzle
2:15 AM 45.5 °F 42.1 °F 88% 30.11 in 10.0 mi North - - N/A   Overcast
2:35 AM 45.5 °F 42.3 °F 88% 30.09 in 10.0 mi North - - N/A   Drizzle
2:36 AM 45.5 °F 42.3 °F 88% 30.09 in 10.0 mi North - - N/A   Drizzle
2:55 AM 45.5 °F 42.6 °F 90% 30.05 in 10.0 mi North - - 0.02 in Rain , Thunderstorm Light Thunderstorms and Rain
2:56 AM 45.5 °F 42.6 °F 90% 30.05 in 10.0 mi North - - 0.02 in Rain , Thunderstorm Light Thunderstorms and Rain
3:15 AM 46.2 °F 43.3 °F 90% 30.04 in 7.0 mi North - - 0.03 in Rain Heavy Rain
3:16 AM 46.4 °F 43.3 °F 89% 30.04 in 7.0 mi North - - 0.04 in Rain Heavy Rain
3:35 AM 46.4 °F 43.3 °F 89% 30.02 in 10.0 mi North - - 0.08 in Rain Light Rain
3:55 AM 46.4 °F 43.5 °F 90% 30.01 in 10.0 mi North - - 0.10 in Rain , Thunderstorm Rain
4:15 AM 46.4 °F 43.7 °F 90% 29.99 in 10.0 mi North - - 0.03 in Rain , Thunderstorm Light Thunderstorms and Rain
4:35 AM 47.1 °F 44.4 °F 90% 30.00 in 7.0 mi North - - 0.06 in Rain Rain
4:36 AM 47.1 °F 44.4 °F 90% 30.01 in 7.0 mi North - - 0.06 in Rain Rain
4:55 AM 47.3 °F 44.6 °F 90% 29.99 in 4.0 mi North - - 0.18 in Rain Heavy Rain
5:15 AM 47.7 °F 45.0 °F 90% 30.02 in 2.5 mi North - - 0.13 in Rain Heavy Rain
5:16 AM 47.5 °F 44.8 °F 90% 30.02 in 2.5 mi North - - 0.14 in Rain Heavy Rain
5:35 AM 47.3 °F 44.8 °F 91% 30.00 in 5.0 mi North - - 0.24 in Rain Rain
5:55 AM 47.3 °F 44.8 °F 91% 29.97 in 4.0 mi North - - 0.35 in Rain Heavy Rain
5:56 AM 47.3 °F 44.8 °F 91% 29.97 in 4.0 mi North - - 0.36 in Rain Heavy Rain
6:15 AM 46.8 °F 44.4 °F 92% 29.97 in 5.0 mi North - - 0.07 in Rain Rain
6:16 AM 46.8 °F 44.4 °F 92% 29.96 in 5.0 mi North - - 0.07 in Rain Rain
6:35 AM 46.6 °F 44.6 °F 93% 29.93 in 5.0 mi North - - 0.15 in Rain Rain
6:55 AM 46.6 °F 44.6 °F 93% 29.92 in 7.0 mi North - - 0.21 in Rain Light Rain
6:56 AM 46.8 °F 44.8 °F 93% 29.93 in 7.0 mi North - - 0.21 in Rain Light Rain
7:15 AM 47.3 °F 45.1 °F 92% 29.95 in 10.0 mi North - - 0.01 in Rain Rain
7:16 AM 47.3 °F 45.1 °F 92% 29.95 in 10.0 mi North - - 0.01 in Rain Rain
7:35 AM 47.7 °F 45.7 °F 93% 29.92 in 10.0 mi North - - 0.04 in Rain Rain
7:55 AM 47.8 °F 45.9 °F 93% 29.90 in 10.0 mi North - - 0.04 in Rain Light Rain
8:15 AM 47.8 °F 45.9 °F 93% 29.89 in 10.0 mi North - - N/A Rain Rain
8:35 AM 48.2 °F 46.2 °F 93% 29.86 in 10.0 mi North - - N/A   Light Drizzle
8:36 AM 48.2 °F 46.2 °F 93% 29.86 in 10.0 mi North - - N/A   Light Drizzle
8:55 AM 48.4 °F 46.4 °F 93% 29.84 in 10.0 mi North - - N/A   Overcast
9:15 AM 48.7 °F 46.6 °F 92% 29.82 in 10.0 mi North - - 0.01 in   Overcast
9:35 AM 49.1 °F 46.8 °F 92% 29.81 in 10.0 mi North - - 0.01 in   Overcast
9:55 AM 49.5 °F 47.1 °F 92% 29.80 in 10.0 mi North - - 0.01 in   Overcast
9:56 AM 49.5 °F 47.1 °F 92% 29.80 in 10.0 mi North - - 0.01 in   Overcast
10:15 AM 49.6 °F 47.3 °F 92% 29.79 in 10.0 mi North - - N/A   Overcast
10:16 AM 49.6 °F 47.1 °F 91% 29.79 in 10.0 mi North - - N/A   Overcast
10:35 AM 49.6 °F 46.9 °F 90% 29.79 in 5.0 mi North - - N/A   Overcast
10:55 AM 50.0 °F 47.3 °F 90% 29.78 in 4.0 mi North - - N/A Rain Light Rain
11:15 AM 49.8 °F 47.1 °F 90% 29.76 in 3.0 mi North - - N/A Rain Light Rain
11:35 AM 50.0 °F 47.3 °F 90% 29.75 in 3.0 mi North - - N/A   Overcast
11:55 AM 50.0 °F 47.3 °F 90% 29.74 in 3.0 mi North - - N/A   Overcast
12:15 PM 50.0 °F 47.5 °F 91% 29.73 in 2.0 mi North - - N/A Rain Rain
12:35 PM 50.2 °F 47.8 °F 92% 29.72 in 2.5 mi North - - N/A Rain Light Rain
12:55 PM 50.4 °F 48.0 °F 92% 29.71 in 2.5 mi North - - N/A Rain Light Rain
12:56 PM 50.4 °F 48.2 °F 92% 29.71 in 2.5 mi North - - N/A Rain Light Rain
1:15 PM 50.7 °F 48.4 °F 92% 29.70 in 3.0 mi North - - 0.01 in   Light Drizzle
1:35 PM 51.4 °F 49.1 °F 92% 29.68 in 4.0 mi North - - 0.01 in   Overcast
1:55 PM 51.4 °F 49.3 °F 92% 29.67 in 4.0 mi North - - 0.01 in   Overcast
1:56 PM 51.4 °F 49.3 °F 92% 29.67 in 4.0 mi North - - 0.01 in   Overcast
2:15 PM 52.5 °F 50.4 °F 92% 29.66 in 5.0 mi North - - N/A   Overcast
2:35 PM 53.1 °F 50.9 °F 92% 29.66 in 10.0 mi North - - N/A   Overcast
2:55 PM 53.2 °F 50.9 °F 92% 29.66 in 5.0 mi North - - N/A   Overcast
2:56 PM 53.2 °F 50.9 °F 92% 29.66 in 5.0 mi North - - N/A   Overcast
3:15 PM 54.1 °F 51.8 °F 92% 29.65 in 10.0 mi North - - N/A   Overcast
3:16 PM 54.1 °F 51.8 °F 92% 29.65 in 10.0 mi North - - N/A   Overcast
3:35 PM 54.9 °F 52.3 °F 91% 29.65 in 10.0 mi North - - N/A   Overcast
3:36 PM 54.9 °F 52.3 °F 91% 29.65 in 10.0 mi North - - N/A   Overcast
3:55 PM 55.6 °F 52.9 °F 91% 29.64 in 10.0 mi North - - N/A   Overcast
4:15 PM 55.8 °F 51.4 °F 85% 29.66 in 10.0 mi North - - N/A   Overcast
4:35 PM 55.9 °F 47.5 °F 73% 29.67 in 10.0 mi North - - N/A   Mostly Cloudy
4:36 PM 55.8 °F 47.5 °F 74% 29.67 in 10.0 mi North - - N/A   Mostly Cloudy
4:55 PM 55.4 °F 47.3 °F 74% 29.67 in 10.0 mi North - - N/A   Mostly Cloudy
4:56 PM 55.4 °F 47.3 °F 74% 29.67 in 10.0 mi North - - N/A   Mostly Cloudy
5:15 PM 55.2 °F 47.5 °F 75% 29.67 in 10.0 mi North - - N/A   Overcast
5:35 PM 54.9 °F 47.1 °F 75% 29.68 in 10.0 mi North - - N/A   Overcast
5:36 PM 54.9 °F 47.1 °F 75% 29.68 in 10.0 mi North - - N/A   Overcast
5:55 PM 54.9 °F 47.7 °F 77% 29.69 in 10.0 mi North - - N/A   Overcast
5:56 PM 54.9 °F 47.7 °F 77% 29.69 in 10.0 mi North - - N/A   Overcast
6:15 PM 53.8 °F 47.8 °F 80% 29.70 in 10.0 mi North - - N/A   Overcast
6:35 PM 53.4 °F 47.5 °F 80% 29.72 in 10.0 mi North - - N/A   Overcast
6:55 PM 52.9 °F 46.0 °F 78% 29.72 in 10.0 mi North - - N/A   Overcast
7:15 PM 51.6 °F 46.4 °F 82% 29.73 in 5.0 mi North - - N/A Rain Rain
7:16 PM 51.6 °F 46.4 °F 82% 29.74 in 5.0 mi North - - N/A Rain Rain
7:55 PM 51.4 °F 43.7 °F 75% 29.76 in 10.0 mi North - - N/A   Overcast
7:56 PM 51.4 °F 43.7 °F 75% 29.76 in 10.0 mi North - - N/A   Overcast
8:15 PM 50.9 °F 43.3 °F 75% 29.77 in 10.0 mi North - - N/A   Overcast
8:35 PM 50.5 °F 43.2 °F 76% 29.78 in 10.0 mi North - - N/A   Overcast
8:56 PM 49.6 °F 43.3 °F 79% 29.79 in 10.0 mi North - - N/A   Mostly Cloudy
9:15 PM 49.8 °F 43.2 °F 78% 29.79 in 10.0 mi North - - N/A   Mostly Cloudy
9:55 PM 49.1 °F 43.2 °F 80% 29.80 in 10.0 mi North - - N/A   Scattered Clouds
9:56 PM 49.1 °F 43.2 °F 80% 29.80 in 10.0 mi North - - N/A   Clear
10:15 PM 48.4 °F 43.0 °F 82% 29.81 in 10.0 mi North - - N/A   Clear
10:16 PM 48.4 °F 43.0 °F 82% 29.81 in 10.0 mi North - - N/A   Clear
10:35 PM 47.8 °F 42.8 °F 83% 29.82 in 10.0 mi North - - N/A   Clear
10:36 PM 47.8 °F 42.8 °F 83% 29.82 in 10.0 mi North - - N/A   Clear
10:55 PM 48.4 °F 43.3 °F 83% 29.82 in 10.0 mi North - - N/A   Scattered Clouds
11:15 PM 49.1 °F 43.7 °F 82% 29.83 in 10.0 mi North - - N/A   Mostly Cloudy
11:35 PM 48.4 °F 43.5 °F 83% 29.83 in 10.0 mi North - - N/A   Scattered Clouds
11:36 PM 48.4 °F 43.5 °F 83% 29.83 in 10.0 mi North - - N/A   Scattered Clouds
11:55 PM 48.2 °F 43.3 °F 83% 29.83 in 10.0 mi North - - N/A   Scattered Clouds
11:56 PM 48.2 °F 43.3 °F 83% 29.83 in 10.0 mi North - - N/A   Clear